Regional Weather Roundup
Issued by NWS

Home | Current Version | Previous Version | Graphics & Text | Print | Product List | Glossary On
Versions: 1 2 3 4 5 6 7 8 9 10 11 12 13 14 15 16 17 18 19 20 21 22 23 24 25 26 27 28
000
ASUS45 KSLC 262110
RWRUT

UTAH REGIONAL WEATHER ROUNDUP
NATIONAL WEATHER SERVICE SALT LAKE CITY UT
300 PM MDT FRI MAY 26 2017

UTZ001>011-023>025-262200-

NORTHERN UTAH

CITY           SKY/WX    TMP DP  RH WIND       PRES   REMARKS
BRIGHAM CITY   PTSUNNY   64  31  29 SW5       29.90R
HILL AFB       MOSUNNY   62  31  31 W10       29.91S
LOGAN          PTSUNNY   60  43  53 N13G21    29.90R
OGDEN          PTSUNNY   63  31  30 NW7       29.90S
SALT LAKE CITY MOSUNNY   67  33  28 NW12G21   29.89S
TOOELE VALLEY  MOSUNNY   64  37  36 N12G18    29.91R
WENDOVER       PTSUNNY   66  27  23 N12G21    29.88R
HEBER CITY     CLOUDY    66  28  24 SW13      29.87R
WEST JORDAN    MOSUNNY   64  44  49 NW16      29.91R

$$

UTZ011>015-024>027-262200-

CENTRAL/NORTHEAST UTAH

CITY           SKY/WX    TMP DP  RH WIND       PRES   REMARKS
PROVO AIRPORT  PTSUNNY   69  38  32 NW20      29.88R
MOAB/CANYONLAN SUNNY     84  10   6 S24G32    29.72F
DELTA          SUNNY     73  27  17 W13       29.83S
PRICE          SUNNY     75  22  13 W21G32    29.80S
ROOSEVELT      CLOUDY    77  28  16 W18G26    29.77S
VERNAL         CLOUDY    69  31  24 W9        29.75F

$$

UTZ013>016-019>022-027-262200-

SOUTHERN UTAH

CITY           SKY/WX    TMP DP  RH WIND       PRES   REMARKS
BRYCE CANYON   MOSUNNY   66  22  18 SW21G28   29.99R
CEDAR CITY     SUNNY     76  22  13 S21G30    29.88R
MILFORD        MOSUNNY   80  23  12 SW22G33   29.80S
ST GEORGE      CLOUDY    85  26  11 SW18      29.78S
HANKSVILLE     MOSUNNY   86  21   9 SW18G28   29.76S
BLANDING       SUNNY     76  14   9 SW20G30   29.96F

$$

REGIONAL REPORTS     COLORADO/ARIZONA

CITY           SKY/WX    TMP DP  RH WIND       PRES   REMARKS
CRAIG, CO      CLOUDY    68  28  22 SW18G32   29.81S
GRAND JUNCTION SUNNY     81  17   9 SW14G23   29.75F
RIFLE, CO      SUNNY     80   9   6 SW20G25   29.79F
MONTROSE, CO   SUNNY     77  15   9 S18G31    29.87F
CORTEZ, CO     SUNNY     76  10   8 SW8G26    29.94F
COLORADO CITY    N/A     82  23  11 W18G37    29.90F
PAGE, AZ       SUNNY     85  19   9 S14G21    29.79F
GRAND CANYON   SUNNY     72  23  16 SW17G37   30.01F
KINGMAN, AZ    SUNNY     83  23  11 SW22G36   29.88S
FLAGSTAFF, AZ  SUNNY     67  12  12 SW21G33   30.07F

$$

REGIONAL REPORTS    NEVADA/IDAHO/WYOMING

CITY           SKY/WX    TMP DP  RH WIND       PRES   REMARKS
LAS VEGAS, NV  SUNNY     88  22   9 SE10      29.75F
ELY, NY        SUNNY     64  21  19 W12G23    29.94R
ELKO, NV       CLOUDY    62  28  27 W12G17    29.97R
POCATELLO, ID  LGT RAIN  46  42  86 N6        29.97R
BURLEY, ID     LGT RAIN  47  43  86 NW10      29.98R FOG
FORT BRIDGER,    N/A     59  25  27 W30G37    29.96R
EVANSTON, WY   CLOUDY    54  30  40 W21G31    29.94S
ROCK SPRINGS,  LGT RAIN  52  33  48 W25G33    29.92R
KEMMERER, WY     N/A     52  30  43 W17G29    29.92R

$$




USA.gov is the U.S. government's official web portal to all federal, state and local government web resources and services.